Regional Weather Roundup
Issued by NWS

Home | Current Version | Previous Version | Text Only | Print | Product List | Glossary Off
Versions: 1 2 3 4 5 6 7 8 9 10 11 12 13 14 15 16 17 18 19 20 21 22 23 24 25 26 27 28 29 30 31 32 33 34 35 36 37 38 39 40 41 42 43 44 45 46 47 48 49 50

000
ASUS43 KMKX 241821
RWRWI

WISCONSIN REGIONAL WEATHER ROUNDUP
NATIONAL WEATHER SERVICE MILWAUKEE/SULLIVAN WI
100 PM CDT MON APR 24 2017

NOTE: "FAIR" INDICATES FEW OR NO CLOUDS BELOW 12,000 FEET WITH NO
SIGNIFICANT WEATHER AND/OR OBSTRUCTIONS TO VISIBILITY.

WIZ001-002-006>008-014>016-023>028-241900-
NORTHWEST WISCONSIN

CITY           SKY/WX    TMP DP  RH WIND       PRES   REMARKS
SUPERIOR ARPT  CLOUDY    38  31  77 E21G29    29.83F WCI  27
6HR MIN TEMP:  35; 6HR MAX TEMP:  40;

ASHLAND        CLOUDY    46  32  58 N16       29.85F
6HR MIN TEMP:  34; 6HR MAX TEMP:  47;

HAYWARD        CLOUDY    63  33  32 S14G22    29.78F
6HR MIN TEMP:  38; 6HR MAX TEMP:  63;

SIREN          CLOUDY    64  34  32 S16G29    29.73F
6HR MIN TEMP:  38; 6HR MAX TEMP:  64;

CUMBERLAND     MOSUNNY   59  36  41 SE14G20   29.77F
RICE LAKE      MOSUNNY   63  36  37 SE16      29.78F
6HR MIN TEMP:  39; 6HR MAX TEMP:  60;

CHETEK         MOSUNNY   61  38  43 SE13G20   29.78F
6HR MIN TEMP:  38; 6HR MAX TEMP:  61;

LADYSMITH      MOSUNNY   59  36  41 SE13      29.83F
6HR MIN TEMP:  36; 6HR MAX TEMP:  59;

EAU CLAIRE     CLOUDY    64  34  32 S16G30    29.78F
6HR MIN TEMP:  40; 6HR MAX TEMP:  65;

MENOMONIE      CLOUDY    66  33  28 S17G23    29.78F
6HR MIN TEMP:  41; 6HR MAX TEMP:  67; 6HR PCP:  0.01;

NEW RICHMOND   CLOUDY    67  29  23 S16G26    29.74F
6HR MIN TEMP:  43; 6HR MAX TEMP:  67;

OSCEOLA        PTSUNNY   67  32  27 S15G23    29.75F
6HR MIN TEMP:  45; 6HR MAX TEMP:  67;

$$

WIZ003>005-009-010-017-018-241900-
NORTH CENTRAL WISCONSIN

CITY           SKY/WX    TMP DP  RH WIND       PRES   REMARKS
MANITOWISH WTR CLOUDY    59  33  37 S10       29.85F
6HR MIN TEMP:  32; 6HR MAX TEMP:  59;

ARBOR VITAE    MOSUNNY   60  32  34 S15       29.86F
6HR MIN TEMP:  34; 6HR MAX TEMP:  61;

WOODRUFF       MOSUNNY   60  32  34 S15       29.86F
6HR MIN TEMP:  34; 6HR MAX TEMP:  61;

RHINELANDER    SUNNY     59  33  37 S13G18    29.89F
6HR MIN TEMP:  33; 6HR MAX TEMP:  61;

EAGLE RIVER    SUNNY     59  29  32 S9G17     29.88F
6HR MIN TEMP:  30; 6HR MAX TEMP:  59;

LAND O LAKES   MOSUNNY   59  31  34 S8G18     29.90F
6HR MIN TEMP:  30; 6HR MAX TEMP:  59;

PHILLIPS       CLOUDY    58  34  39 S15       29.83F
6HR MIN TEMP:  32; 6HR MAX TEMP:  63;

TOMAHAWK       MOSUNNY   60  35  38 S6        29.88F
6HR MIN TEMP:  32; 6HR MAX TEMP:  60;

MEDFORD        PTSUNNY   58  37  45 S13G21    29.86F
6HR MIN TEMP:  32; 6HR MAX TEMP:  59;

MERRILL        MOSUNNY   62  33  34 S7G18     29.90F
6HR MIN TEMP:  31; 6HR MAX TEMP:  62;

$$

WIZ029-030-035-036-043>047-241900-
CENTRAL WISCONSIN

CITY           SKY/WX    TMP DP  RH WIND       PRES   REMARKS
WAUSAU         MOSUNNY   63  34  33 S14       29.88F
6HR MIN TEMP:  33; 6HR MAX TEMP:  63;

MOSINEE        PTSUNNY   61  34  36 SE13      29.91F
MARSHFIELD     PTSUNNY   64  35  34 S13G22    29.86F
6HR MIN TEMP:  34; 6HR MAX TEMP:  64;

STEVENS POINT  CLOUDY    63  32  31 S17       29.90F
6HR MIN TEMP:  32; 6HR MAX TEMP:  63;

WAUPACA        CLOUDY    64  38  39 E7        29.94F
6HR MIN TEMP:  37; 6HR MAX TEMP:  64;

WAUTOMA        CLOUDY    66  35  31 MISG        N/A
6HR MIN TEMP:  35; 6HR MAX TEMP:  66;

WISC RAPIDS    CLOUDY    67  30  25 S18G25    29.89F
6HR MIN TEMP:  36; 6HR MAX TEMP:  67;

CAMP DOUGLAS   CLOUDY    66  32  28 S20G25    29.87F
$$

WIZ011>013-019>022-031-037>040-048>050-241900-
NORTHEAST WISCONSIN

CITY           SKY/WX    TMP DP  RH WIND       PRES   REMARKS
ANTIGO         MOSUNNY   57  35  43 S10G21    29.93F
6HR MIN TEMP:  30; 6HR MAX TEMP:  59;

SHAWANO        CLOUDY    62  39  41 SE7       29.94F
6HR MIN TEMP:  36; 6HR MAX TEMP:  61;

OCONTO         MOSUNNY   53  40  60 E6        29.97F
6HR MIN TEMP:  35; 6HR MAX TEMP:  56;

STURGEON BAY   MOSUNNY   54  41  61 SE8       29.98F
6HR MIN TEMP:  37; 6HR MAX TEMP:  54;

GREEN BAY      CLOUDY    57  46  66 NE12      29.96F
6HR MIN TEMP:  38; 6HR MAX TEMP:  62;

MANITOWOC      MOSUNNY   52  42  69 SE10      29.98F
6HR MIN TEMP:  36; 6HR MAX TEMP:  52;

APPLETON       PTSUNNY   61  34  36 SE6       29.94F
CLINTONVILLE   CLOUDY    59  36  41 S3        29.95F
OSHKOSH        CLOUDY    59  44  57 NE6       29.93F
6HR MIN TEMP:  40; 6HR MAX TEMP:  59;

$$

WIZ032>034-041-042-053>061-241900-
SOUTHWEST WISCONSIN

CITY           SKY/WX    TMP DP  RH WIND       PRES   REMARKS
LA CROSSE      MOSUNNY   71  31  22 S21G32    29.81F
6HR MIN TEMP:  46; 6HR MAX TEMP:  71;

SPARTA         CLOUDY    68  32  26 S18       29.85F
6HR MIN TEMP:  38; 6HR MAX TEMP:  68;

VIROQUA        MOSUNNY   67  29  24 SE20      29.85F
6HR MIN TEMP:  40; 6HR MAX TEMP:  67;

BOSCOBEL       CLOUDY    71  30  21 S14G23    29.87F
6HR MIN TEMP:  45; 6HR MAX TEMP:  72;

PRAIRIE DU CHI CLOUDY    70  26  19 SE14G22   29.85F
6HR MIN TEMP:  45; 6HR MAX TEMP:  70;

PLATTEVILLE    MOSUNNY   70  32  24 S15G24    29.88F
6HR MIN TEMP:  45; 6HR MAX TEMP:  70;

$$

WIZ056-057-062-063-064-067-068-241900-
SOUTH CENTRAL WISCONSIN

CITY           SKY/WX    TMP DP  RH WIND       PRES   REMARKS
REEDSBURG      MOSUNNY   67  33  28 SE12G20   29.89F
6HR MIN TEMP:  35; 6HR MAX TEMP:  67;

BARABOO/DELLS  MOSUNNY   66  32  27 S17G26    29.89F
6HR MIN TEMP:  37; 6HR MAX TEMP:  67;

LONE ROCK      MOSUNNY   69  32  25 S16G23    29.88F
6HR MIN TEMP:  40; 6HR MAX TEMP:  70;

MINERAL POINT  MOSUNNY   70  28  21 S15G21    29.89F
MADISON        CLOUDY    67  31  26 S14       29.90F
6HR MIN TEMP:  37; 6HR MAX TEMP:  67;

MIDDLETON      CLOUDY    68  29  23 SE15G23   29.90F
6HR MIN TEMP:  41; 6HR MAX TEMP:  69;

WATERTOWN      MOSUNNY   68  32  26 S13       29.91F
6HR MIN TEMP:  37; 6HR MAX TEMP:  69;

MONROE         MOSUNNY   68  32  26 S14G20    29.90F
JANESVILLE     PTSUNNY   72  28  20 S15G21    29.91F
$$

WIZ051-052-058>065-066-070>072-241900-
SOUTHEAST WISCONSIN

CITY           SKY/WX    TMP DP  RH WIND       PRES   REMARKS
MILWAUKEE      CLOUDY    62  45  53 SE8       29.97F
6HR MIN TEMP:  41; 6HR MAX TEMP:  63;

WAUKESHA       SUNNY     66  34  30 SE12G18   29.95F
MILWAUKEE/TIMM SUNNY     64  37  36 E7        29.97F
RACINE         CLOUDY    63  29  27 SE10      29.98F
6HR MIN TEMP:  40; 6HR MAX TEMP:  64;

KENOSHA        SUNNY     67  31  26 S14       29.96F
6HR MIN TEMP:  38; 6HR MAX TEMP:  67;

FOND DU LAC    CLOUDY    67  34  29 S15       29.92F
6HR MIN TEMP:  39; 6HR MAX TEMP:  67;

SHEBOYGAN      MOSUNNY   58  44  60 SE10      29.96F
6HR MIN TEMP:  37; 6HR MAX TEMP:  59;

WEST BEND      SUNNY     66  34  30 S10       29.94F
JUNEAU         PTSUNNY   65  31  28 SE14      29.93F
6HR MIN TEMP:  37; 6HR MAX TEMP:  66;

$$

LSZ147-162-241900-
LAKE SUPERIOR

STATION/POSITION TIME  TEMP    WIND        PRES    WAVE
                       AIR SEA DIR/SP/G            HT/PER
                 (UTC) (F)     (DEG/KT/KT) (MB)    (FT/S)
DEVILS ISLAND    1800   36      60/ 23/ 26 1012.6F
PORT WING        1600   38      30/ 18/ 25 1012.2
SAXON HARBOR     1740   39      30/  9/ 12 1011.2F
$$

LMZ867-665-643>646-241900-
LAKE MICHIGAN

STATION/POSITION TIME  TEMP    WIND        PRES    WAVE
                       AIR SEA DIR/SP/G            HT/PER
                 (UTC) (F)     (DEG/KT/KT) (MB)    (FT/S)
CHAMBERS ISLAND  1740   42     360/  9/ 10 1015.6F
N MID LAKE BUOY  1750   38 37   80/ 12/ 14 1018.1F   2/ 4
NORTH


USA.gov is the U.S. government's official web portal to all federal, state and local government web resources and services.